Tracking 19247 objects as of 24-Sep-2018
HD Live streaming from Space Station
objects crossing your sky now

FENGYUN 1C DEB

Track FENGYUN 1C DEB now!
10-day predictions


NORAD ID: 32416
Int'l Code: 1999-025DAC
Perigee: 852.9 km
Apogee: 1,220.2 km
Inclination: 100.8 °
Period: 105.7 minutes
Semi major axis: 7407 km
RCS: 0.0112 m2 (small)
Launch date: May 10, 1999
Source: People's Republic of China (PRC)
Launch site: Taiyaun Space Center, China (TSC)

Note: This is SATELLITE DEBRIS
aabbcc
Your satellite tracking list
Your tracking list is empty




NASA's NSSDC Master Catalog

Two Line Element Set (TLE):
1 32416U 99025DAC 18266.18547633 +.00000287 +00000-0 +36216-3 0  9999
2 32416 100.7860 030.2332 0247942 225.7483 257.3665 13.61721838554886
Source of the keplerian elements: AFSPC